Theta_e
350 349 345 335 328 329 329 335 337 337 336 338 338 340 342 340 339 336 332 331 332 333 336 339 341 342 342 343 343 344 342 338 337 338 341 341 341 341 342 342 343 343 342 342 342 343 342 342 343 342 340 337 337 338 338 338 338 339 339 339 338 339 338 338 338 336 335 336 335 334 333 333 333 333 332 332 332 332 332 331 331 329 327 326 327
350 349 346 334 328 328 330 336 338 340 336 337 338 339 340 339 340 336 333 332 334 335 339 341 343 343 343 343 343 343 338 334 333 336 340 341 341 341 342 342 342 342 342 341 341 341 342 342 342 340 337 336 338 339 338 337 337 338 338 338 338 338 338 337 336 335 334 334 334 334 333 333 332 332 331 331 331 330 331 330 331 329 327 327 326
349 348 346 336 328 329 330 333 337 340 336 336 337 338 339 338 339 337 335 334 336 338 342 343 343 344 343 344 342 339 334 330 328 331 337 339 340 341 340 340 340 341 341 340 340 340 340 340 341 340 338 338 339 338 337 336 337 337 337 337 337 336 336 336 335 335 334 333 333 333 332 332 332 332 332 331 331 331 331 330 331 329 327 327 327
349 349 346 337 328 329 330 331 335 337 336 336 336 338 338 337 337 337 337 336 338 341 344 343 344 344 343 342 341 339 334 330 326 326 331 334 339 341 340 339 339 339 339 340 339 339 339 340 340 340 338 338 337 337 337 336 335 335 334 334 335 334 334 335 336 335 334 333 333 333 332 333 333 333 333 332 332 332 332 331 331 329 326 327 327
349 349 346 339 331 329 329 331 333 334 335 336 336 337 337 336 337 336 337 338 340 342 344 343 343 343 342 341 339 337 332 329 327 328 333 336 338 339 339 339 339 338 338 338 339 339 338 339 339 339 338 338 337 336 336 335 334 333 333 333 334 334 334 334 334 333 333 334 334 334 334 333 333 333 332 332 332 332 331 331 331 329 327 327 327
349 349 346 343 339 332 329 331 331 332 333 335 338 338 337 337 337 338 339 340 342 343 343 343 342 341 340 338 334 332 330 331 331 332 335 337 337 337 338 339 338 339 339 338 338 338 338 339 338 338 338 338 337 336 335 335 334 334 333 333 333 333 333 333 332 332 333 334 334 335 335 334 333 331 331 331 332 332 332 331 331 330 328 327 327
348 348 346 344 343 334 329 331 330 331 331 334 336 339 340 339 339 340 340 341 341 341 342 341 340 338 334 332 329 330 333 336 336 335 335 336 337 338 338 338 339 339 339 338 338 338 338 338 338 338 338 337 337 336 335 335 334 332 331 330 331 331 332 331 332 333 334 335 335 336 336 334 333 332 332 333 332 331 331 331 331 330 329 328 327
347 347 346 345 344 333 328 331 330 329 330 331 334 337 339 340 341 341 340 340 339 340 339 338 334 331 329 329 331 333 337 339 339 338 338 338 339 339 339 339 339 339 339 338 339 338 338 338 338 338 337 336 337 336 334 335 334 331 329 329 329 330 331 331 332 333 334 335 335 335 335 334 333 333 332 332 331 330 329 330 330 330 328 328 328
346 347 346 346 343 332 330 332 331 330 329 328 329 332 335 337 339 339 339 337 335 334 332 330 328 328 330 334 336 338 339 340 340 340 339 339 339 338 337 338 339 339 339 338 339 338 338 337 337 337 336 336 336 335 334 336 337 334 333 332 331 329 329 330 332 334 335 336 336 335 335 335 334 333 332 332 330 330 330 330 330 330 328 327 327
346 346 345 346 341 333 333 332 332 332 329 327 326 327 329 332 334 336 335 332 329 327 327 327 330 334 336 337 338 339 340 340 340 340 340 340 339 339 337 337 338 338 337 337 338 338 338 337 338 337 335 335 336 334 334 336 336 335 335 336 335 330 328 331 333 335 336 336 335 334 334 335 334 332 331 330 331 330 330 330 330 329 327 326 326
346 345 345 346 339 334 334 332 332 331 329 327 325 325 324 326 329 330 328 327 328 329 331 333 336 337 338 339 339 341 341 341 341 340 340 340 340 340 337 335 336 337 337 336 337 338 337 338 339 337 335 335 335 335 334 333 334 334 334 335 335 333 331 332 335 335 335 336 334 333 332 334 334 332 331 331 332 330 329 330 329 328 328 327 326
345 345 346 344 337 333 334 332 331 330 329 327 326 325 323 323 324 325 326 329 332 334 335 336 336 337 337 338 340 341 341 341 341 341 340 340 340 340 337 333 334 336 336 335 337 338 338 338 339 338 336 336 336 336 334 332 333 334 333 334 334 333 333 334 336 336 336 336 335 335 334 334 333 332 332 332 332 331 330 330 329 327 327 327 327
345 345 345 344 337 333 333 332 332 332 331 330 330 328 326 326 326 329 332 335 336 337 337 336 335 336 336 337 338 339 340 341 340 340 340 340 340 340 336 334 334 334 336 336 337 337 337 338 338 338 337 336 336 335 334 332 334 333 332 332 332 332 333 335 336 336 336 335 335 335 334 334 332 331 332 332 332 331 330 329 329 327 325 326 327
345 345 346 345 338 332 332 333 335 336 335 336 336 335 334 333 333 334 335 336 337 337 337 336 336 335 335 336 339 340 340 340 339 340 340 339 338 338 334 333 334 333 334 335 337 337 337 337 337 337 336 335 334 333 333 333 332 331 331 331 332 333 334 335 336 336 335 335 335 334 335 334 331 331 332 332 332 331 330 329 329 328 326 325 327
344 346 346 345 339 333 332 333 337 338 338 339 338 338 339 338 337 337 336 336 336 336 336 335 335 334 335 337 340 341 340 340 339 338 338 337 337 335 334 334 334 333 332 332 333 334 335 336 336 337 335 334 333 332 333 332 330 329 331 332 333 334 335 336 336 336 336 335 334 334 335 332 331 332 332 331 331 331 330 329 328 329 327 324 325
346 347 346 345 342 338 334 335 338 339 338 338 338 337 337 338 338 338 338 337 336 335 334 334 333 334 337 339 339 339 339 338 336 335 335 336 335 335 336 336 335 334 333 332 331 331 332 333 335 335 334 332 332 332 332 330 328 330 332 331 333 334 336 337 336 336 336 336 335 335 334 331 331 332 331 331 330 330 330 329 328 328 327 324 323
348 347 347 345 343 341 339 338 339 338 336 336 336 336 337 336 337 338 338 337 335 334 333 334 335 337 339 338 336 335 335 334 332 332 332 333 334 335 337 336 335 335 334 332 330 329 330 331 332 333 333 333 332 332 332 329 328 330 332 332 333 334 335 336 336 337 336 335 335 335 334 331 331 333 332 331 330 330 329 329 329 327 327 325 323
347 347 346 345 343 342 341 339 338 337 336 336 336 337 337 335 336 338 337 336 335 335 336 337 338 339 338 335 333 333 333 332 332 331 331 331 332 334 336 336 335 335 333 331 328 327 327 328 328 328 330 331 330 330 330 329 328 330 332 332 333 333 334 335 336 336 335 335 334 335 334 331 331 332 331 331 330 330 329 329 329 327 326 326 322
346 345 344 345 343 342 341 340 339 338 337 338 338 338 337 335 336 338 338 337 336 337 338 339 338 337 334 333 332 332 333 333 332 332 332 330 330 333 335 335 335 334 333 328 325 326 326 326 326 326 327 328 328 327 327 328 328 330 332 332 333 333 333 335 336 334 335 335 334 334 331 329 331 332 331 331 330 329 329 329 329 328 327 324 322
345 344 343 344 343 342 342 340 340 341 340 341 341 339 337 336 337 339 339 338 338 338 338 338 336 334 333 333 333 334 334 333 334 334 333 332 331 332 333 334 334 334 332 327 326 327 326 326 325 325 326 326 327 326 326 327 328 331 331 332 332 333 334 337 335 334 335 333 334 333 328 329 333 331 331 331 330 330 329 328 328 328 327 325 323
344 343 343 343 342 342 342 341 341 341 342 341 341 339 337 337 339 339 339 338 338 337 336 335 334 333 333 333 335 337 337 336 336 337 336 334 333 332 332 333 334 334 331 327 326 327 327 326 326 326 325 325 326 327 326 327 329 331 332 332 332 334 336 337 336 335 335 333 334 331 327 331 333 331 332 331 330 329 329 328 328 328 327 327 323
343 342 343 342 342 341 342 341 340 341 341 341 340 338 338 339 339 339 338 337 337 336 336 335 335 335 335 336 339 339 338 338 338 339 338 336 334 333 334 334 334 335 332 327 327 327 327 326 326 326 326 325 327 328 329 328 330 331 331 332 332 335 337 336 336 335 334 334 334 329 327 331 333 331 331 330 330 329 328 328 328 329 328 327 324
342 342 342 342 341 341 340 341 341 341 340 341 342 340 340 339 339 338 337 337 336 337 337 337 339 338 338 339 341 339 338 339 338 338 338 336 334 334 334 334 334 334 332 329 328 328 327 326 327 326 326 326 328 330 330 329 330 330 332 333 334 336 336 336 335 334 334 334 333 328 326 330 332 332 331 331 329 328 328 328 328 329 328 327 324
342 341 341 341 341 341 340 341 341 339 339 341 340 339 337 337 338 339 338 338 337 338 340 339 340 338 338 339 340 339 340 338 336 337 337 336 335 334 334 334 334 334 332 331 330 328 327 327 327 326 328 330 331 330 330 330 330 331 333 334 335 336 336 336 335 335 333 334 333 328 327 330 332 332 331 331 329 328 329 328 328 329 329 327 324
341 340 341 341 341 341 341 340 339 338 338 337 336 336 335 335 338 338 338 339 337 338 339 336 337 335 334 337 338 338 338 336 334 336 338 337 336 335 334 334 334 334 333 334 334 331 331 332 329 329 332 332 331 330 330 330 330 330 332 333 334 335 335 334 334 334 334 334 333 328 327 327 330 332 331 331 329 328 329 328 328 329 328 327 325
340 340 340 341 341 341 340 340 337 338 338 335 335 336 337 337 337 337 337 338 335 335 337 335 336 335 334 336 336 337 337 336 335 336 338 337 337 337 336 336 336 335 334 335 336 335 335 336 333 332 332 331 331 331 330 330 330 330 330 331 332 333 334 334 334 334 334 335 332 329 328 326 329 332 332 331 330 328 329 328 328 328 327 327 326
341 341 341 341 340 339 339 339 337 337 337 335 336 339 339 338 338 337 336 336 337 337 338 338 337 336 336 336 336 337 338 338 337 337 337 337 336 336 336 336 336 336 336 336 336 335 335 336 334 333 331 331 331 331 330 330 330 329 329 330 331 332 333 333 333 333 333 334 332 329 329 326 326 331 332 331 330 328 329 328 327 327 326 327 326
340 339 340 339 338 339 339 338 338 338 338 335 336 338 339 338 337 337 336 337 339 338 339 339 337 337 337 335 336 338 338 337 337 337 336 336 336 336 336 336 336 336 336 336 336 336 336 335 333 332 331 331 330 330 330 330 330 329 329 330 330 331 332 333 334 333 334 334 333 330 329 327 325 329 331 331 330 329 329 328 328 328 326 326 328
339 337 338 338 337 338 336 336 336 337 338 336 336 337 338 338 338 338 337 338 338 339 339 337 337 338 338 337 337 338 336 336 336 335 336 337 336 336 336 336 336 336 336 336 337 337 336 334 333 332 332 332 331 330 330 330 329 329 328 329 330 330 331 333 334 334 333 334 335 331 329 328 325 326 329 330 331 329 329 329 328 328 326 326 328
336 335 338 338 337 336 333 332 333 336 338 336 336 337 338 338 338 338 338 338 338 338 338 338 338 338 338 338 338 336 336 336 335 335 335 335 335 335 335 335 336 336 335 336 336 336 335 334 334 333 333 332 332 330 329 329 329 328 327 328 329 329 330 332 333 333 333 334 336 333 329 328 326 325 326 328 330 329 329 328 327 328 327 326 327
335 336 338 338 337 335 333 332 333 335 335 335 334 334 336 337 338 338 338 338 338 337 337 338 338 337 338 338 337 336 336 335 334 334 334 334 334 333 334 334 335 336 335 335 335 336 335 334 334 334 334 333 332 330 329 329 328 328 327 327 328 329 329 330 331 332 332 333 335 335 332 328 326 325 325 326 328 330 329 328 327 327 328 327 326
336 336 336 337 336 333 333 334 334 333 333 335 333 332 335 337 338 337 337 338 337 337 337 338 337 337 337 336 336 336 336 335 333 334 333 333 334 333 333 334 335 335 335 334 333 335 335 334 335 335 334 333 332 331 329 329 328 328 327 327 327 328 328 328 330 330 331 333 334 336 334 331 328 325 325 326 326 328 329 329 327 327 328 327 326
334 334 335 336 335 334 335 336 334 332 333 336 334 334 336 337 338 337 337 337 336 336 337 337 336 336 335 335 335 335 334 334 333 333 333 333 334 333 333 333 334 334 335 334 333 334 334 334 335 334 334 333 333 331 330 330 329 328 328 327 327 328 327 328 328 330 331 332 333 334 334 333 332 328 326 325 326 327 328 329 328 327 327 327 326
334 334 336 335 334 335 337 337 334 333 335 335 335 336 337 336 337 337 337 337 336 336 336 337 335 334 335 334 334 334 334 334 333 333 333 333 333 334 333 334 334 334 334 334 334 334 333 334 334 333 334 333 333 331 331 331 330 329 329 328 328 327 328 328 328 330 331 332 333 334 333 333 334 332 329 327 326 326 327 329 329 328 326 326 326
335 334 336 336 334 335 337 336 333 334 334 334 336 337 337 337 338 338 338 337 337 336 336 336 335 334 335 335 334 334 334 334 333 333 333 332 333 333 333 333 333 333 334 334 334 334 333 334 334 333 333 334 334 332 331 332 331 330 329 330 329 328 328 328 329 329 330 332 332 334 335 333 333 333 332 330 329 326 326 328 329 329 328 327 326
337 335 336 336 336 336 337 336 333 332 333 334 337 337 338 339 338 338 337 337 336 336 335 335 334 334 334 335 334 334 334 333 333 332 332 332 332 333 333 333 333 333 334 334 334 333 333 333 334 333 333 333 333 332 332 332 332 331 331 330 330 329 329 329 330 329 330 330 331 333 334 334 334 333 332 331 331 329 327 327 328 329 330 328 327
337 336 337 337 337 337 337 336 335 334 333 335 338 338 339 339 338 337 336 336 335 334 334 333 334 333 333 333 334 334 333 333 333 333 333 332 333 333 333 333 333 333 333 334 332 332 333 333 333 334 334 333 332 332 332 332 332 331 331 331 330 330 331 331 331 331 331 331 331 332 332 334 334 333 332 332 332 332 330 327 327 328 329 329 329
337 338 338 339 338 337 336 336 336 336 336 337 339 339 338 337 336 335 335 334 333 333 333 333 333 332 332 332 332 332 332 332 332 332 333 333 333 333 333 333 332 333 333 333 332 332 332 332 333 335 335 334 333 332 332 332 332 332 332 331 331 331 331 331 331 331 332 332 331 330 332 334 334 333 333 333 333 333 332 330 328 328 328 328 329
337 339 339 339 336 332 333 336 335 336 338 339 339 338 337 336 334 334 333 333 332 333 332 331 331 331 331 330 331 331 330 331 331 332 333 333 332 332 333 332 332 333 333 333 332 332 332 333 334 334 334 334 333 333 333 332 332 332 332 332 331 331 331 331 331 332 332 333 331 330 331 333 335 334 333 332 333 333 332 331 330 329 328 328 329
338 338 339 339 335 329 329 333 334 336 338 339 338 337 336 335 334 333 332 332 331 331 331 330 330 330 330 329 329 329 330 330 330 331 332 332 332 332 332 332 332 333 333 333 332 332 332 333 334 334 333 332 331 331 332 332 332 332 332 331 331 331 331 331 331 332 331 332 332 332 332 333 333 334 333 333 333 333 332 331 330 330 329 329 330
337 338 339 337 334 333 332 334 337 339 339 338 337 336 335 334 333 333 331 330 330 330 330 330 329 330 330 329 329 329 329 329 329 330 331 331 331 331 331 331 332 332 332 332 331 331 332 333 333 333 333 331 330 330 330 330 331 331 331 331 332 331 331 331 331 331 331 332 333 333 333 333 333 333 333 333 333 333 332 330 330 329 328 329 330
337 338 340 337 335 337 337 338 341 340 338 338 337 336 334 333 333 332 331 330 329 329 329 330 329 329 329 329 329 329 329 329 329 329 329 330 330 331 331 331 331 331 331 331 331 331 332 332 333 332 332 331 331 331 330 330 330 331 332 331 331 331 331 332 331 330 330 330 331 332 332 332 332 332 332 332 331 331 331 330 330 329 327 328 329
338 338 339 338 337 338 339 340 340 340 338 338 337 336 335 334 333 332 331 330 330 330 328 328 328 327 327 328 328 329 328 328 328 328 328 328 328 329 329 329 331 331 331 331 331 331 331 332 332 331 331 331 331 331 331 331 330 330 332 331 330 331 330 331 332 331 331 331 330 330 330 330 330 331 331 331 330 330 330 329 329 329 328 327 328
338 338 338 338 337 337 338 338 339 339 338 337 336 336 334 333 333 332 331 330 330 329 328 327 326 324 325 325 326 327 328 327 327 327 327 327 327 327 328 328 329 330 331 331 330 330 331 331 331 331 331 331 331 331 331 331 331 330 330 329 329 330 329 329 329 329 330 331 330 330 330 329 330 330 331 330 330 330 330 329 328 329 328 327 327
337 338 339 339 338 336 334 336 340 340 338 337 336 336 333 331 331 331 330 330 329 328 326 325 325 324 323 323 324 325 326 326 326 326 325 326 327 326 326 327 328 329 330 330 330 330 330 331 331 331 331 331 330 330 330 331 331 331 330 329 329 329 329 328 328 328 329 329 329 329 329 330 330 330 330 329 328 327 327 326 327 328 327 328 328
337 338 339 339 337 336 334 336 340 341 338 336 335 335 333 331 331 330 330 329 328 327 326 325 325 323 321 321 322 324 325 325 326 326 325 326 326 326 326 327 327 328 328 329 329 329 330 330 330 331 331 331 330 330 330 330 330 330 330 330 331 330 330 329 329 327 327 328 328 328 328 329 329 329 330 329 328 327 326 326 326 327 327 328 329
338 339 339 339 337 337 337 338 339 340 339 336 335 334 332 331 331 330 329 329 328 328 326 325 324 322 322 322 322 324 324 324 325 325 325 325 326 326 326 327 327 327 327 326 327 327 327 327 328 330 330 330 330 330 330 330 330 329 330 330 330 331 330 330 329 327 327 327 326 326 326 327 327 328 329 329 329 329 328 327 327 328 328 329 329
338 338 338 339 338 337 338 338 338 339 339 336 335 334 332 331 332 330 328 327 327 327 326 325 323 322 322 322 322 322 323 324 324 325 325 325 325 325 326 327 326 326 325 325 325 325 325 326 326 327 328 329 330 330 330 330 330 329 329 329 329 329 330 331 330 329 328 328 326 325 325 325 325 326 327 328 328 328 328 327 327 328 328 329 328
338 337 337 337 337 337 338 338 337 338 338 337 335 335 332 332 332 329 328 327 326 326 324 323 323 323 322 322 321 321 322 324 325 325 324 324 323 324 325 325 325 324 324 324 324 324 325 326 327 328 328 330 330 330 330 330 330 330 329 329 329 329 329 330 330 329 329 328 326 326 325 325 324 323 324 326 326 326 326 325 325 326 326 327 327
337 336 335 335 334 335 334 333 332 332 334 335 335 335 333 331 331 330 329 328 327 325 323 323 323 323 322 322 322 321 322 323 324 325 324 322 323 323 323 324 324 323 322 322 322 323 324 325 327 328 328 329 329 329 330 329 329 329 329 329 329 329 329 329 329 329 328 327 326 326 325 325 324 322 322 323 324 323 323 322 322 322 323 324 324
336 333 332 332 331 330 330 330 328 328 329 329 332 334 332 330 330 330 329 328 327 325 323 323 323 323 322 322 321 321 322 323 323 323 323 322 321 322 323 322 323 322 321 321 321 322 323 324 324 324 325 327 327 328 328 328 328 329 329 329 328 329 328 328 328 328 327 326 325 324 323 322 322 321 319 320 319 319 319 319 319 319 319 321 321
Wind_Speed
20 22 23 27 26 24 22 21 21 22 23 24 25 26 26 26 26 26 27 25 25 26 27 25 24 23 22 21 19 17 16 17 17 17 17 17 17 17 17 16 15 15 14 14 14 14 13 13 13 13 12 12 12 13 12 13 11 11 12 12 12 12 11 11 13 13 12 12 13 14 14 13 12 12 12 13 13 13 12 11 12 13 14 14 12
24 24 23 27 27 25 23 22 22 22 24 24 25 26 26 27 26 25 26 25 26 27 25 24 23 22 21 19 18 17 16 16 16 16 17 18 18 17 17 16 15 15 14 13 13 13 13 13 12 12 12 12 12 12 12 13 12 11 12 12 12 11 11 11 12 12 12 12 13 13 14 13 12 12 12 13 13 13 13 12 13 14 15 15 14
25 23 23 26 27 26 24 25 25 24 25 24 24 25 25 26 27 25 26 27 27 26 24 23 22 21 20 19 18 17 16 15 15 16 17 18 19 18 17 16 15 15 14 13 13 13 13 12 12 12 13 13 12 12 11 12 12 11 11 12 12 10 11 11 11 12 12 12 13 14 14 13 12 12 12 12 12 13 13 13 13 14 15 15 15
25 23 23 26 27 27 25 26 27 26 26 25 25 26 26 27 27 27 27 28 27 25 23 22 21 20 20 19 18 16 15 15 15 16 17 18 19 19 18 17 16 15 14 13 13 13 13 12 12 13 13 12 12 12 11 11 12 11 11 11 10 10 11 11 12 13 12 11 13 14 13 12 12 12 12 12 12 13 14 13 13 15 16 15 14
25 24 24 26 27 28 26 26 27 27 27 27 28 27 28 28 28 28 28 28 26 23 22 21 21 20 19 19 18 16 16 15 15 16 17 17 17 18 17 16 15 15 14 14 13 14 14 13 13 13 13 13 13 12 12 11 11 11 11 10 10 10 10 10 12 14 14 13 12 11 10 11 11 11 12 11 12 12 13 14 13 15 15 15 15
25 24 24 24 24 27 28 27 28 28 27 28 29 29 29 30 29 29 28 27 24 22 22 21 20 20 19 18 18 17 17 16 16 17 17 17 16 17 17 16 15 15 14 14 14 14 14 14 13 13 13 13 13 13 13 12 11 11 10 11 11 10 10 12 14 15 14 13 11 9 8 10 10 10 11 10 11 12 13 13 13 13 14 14 14
25 25 24 23 22 26 29 27 28 28 28 28 29 29 29 30 29 28 27 25 23 23 22 21 20 20 19 19 18 17 16 16 16 17 17 17 16 16 16 15 15 14 14 14 14 14 14 14 14 13 13 13 13 13 13 13 12 11 11 11 11 12 12 14 13 12 11 10 8 8 8 9 10 10 10 10 11 11 12 12 12 12 13 13 13
23 23 24 23 22 27 29 28 28 28 28 28 28 29 29 29 28 27 26 24 23 23 22 21 21 20 20 19 18 17 16 16 16 16 17 16 16 15 15 15 14 14 14 13 13 13 14 14 14 13 13 13 13 13 14 13 12 12 12 12 11 11 13 13 12 11 10 8 7 8 8 8 9 9 9 10 10 11 12 12 12 12 12 12 13
22 22 23 23 23 28 29 28 28 27 27 27 28 28 28 28 27 26 25 25 24 23 23 23 22 21 19 18 17 17 16 16 16 17 17 17 16 16 15 15 14 14 14 13 13 13 13 14 13 13 12 13 13 13 14 13 11 11 11 11 10 10 11 11 10 10 8 7 7 7 8 8 9 9 9 9 9 9 8 10 12 11 12 12 13
21 21 22 23 25 28 28 28 28 27 27 27 27 27 26 27 27 26 25 25 25 24 24 23 22 20 18 17 16 16 15 15 16 18 17 17 16 15 14 14 14 13 13 13 13 13 13 13 13 12 12 13 13 12 13 12 11 9 9 9 8 8 9 10 10 8 6 6 8 7 8 10 9 9 9 9 9 8 8 9 10 11 12 13 14
20 20 21 23 27 28 28 29 28 27 28 27 27 27 27 27 27 26 26 25 25 24 24 22 20 19 18 16 15 14 14 13 14 17 17 16 16 15 13 12 13 12 12 13 12 13 12 12 12 12 12 12 12 11 10 10 9 7 6 6 6 7 7 8 8 6 5 7 8 8 8 10 10 10 9 9 9 8 9 10 8 10 13 13 14
20 20 21 24 28 28 28 28 28 29 28 28 28 27 27 27 27 27 26 25 24 23 22 21 20 19 17 16 14 13 14 14 14 16 16 15 14 13 12 11 12 11 12 13 13 12 12 13 12 12 12 11 10 9 8 7 7 5 4 4 4 4 6 8 5 3 5 7 7 7 7 9 9 9 9 8 9 9 10 10 9 9 12 13 12
19 20 22 25 27 28 27 27 28 29 28 28 28 27 27 27 27 26 25 24 23 22 21 21 19 18 17 15 14 12 14 15 14 14 14 13 12 12 11 10 12 11 11 12 13 12 11 11 11 11 11 10 8 6 5 6 5 5 4 2 2 1 4 8 5 3 5 6 6 7 7 9 9 9 9 8 8 9 9 9 9 9 11 12 12
20 21 23 25 26 28 27 27 28 27 27 26 26 26 26 26 25 25 24 24 23 22 21 20 19 18 16 15 13 12 13 13 12 12 12 11 11 11 10 10 11 11 11 11 12 11 11 10 9 9 9 9 7 5 4 5 5 4 3 2 2 1 4 7 5 4 5 6 6 7 8 8 9 9 9 8 7 8 8 8 9 9 9 11 12
20 22 23 24 25 27 27 27 27 26 26 26 26 25 24 24 24 23 23 23 22 21 21 20 19 17 16 15 14 13 13 12 11 11 11 11 11 10 9 10 11 11 10 10 10 10 10 10 9 8 8 8 7 6 5 5 3 2 3 2 2 3 6 5 3 5 5 6 6 6 7 8 10 9 8 8 7 7 8 8 8 8 8 9 11
20 21 22 23 24 25 25 26 26 26 26 25 25 24 23 23 22 22 22 22 22 21 20 20 19 17 16 16 14 12 12 11 10 11 11 11 10 10 10 10 11 10 9 9 9 9 9 9 9 8 8 8 8 7 6 5 3 2 3 1 2 4 8 6 3 5 5 5 6 6 7 8 10 9 7 8 7 6 6 7 7 8 7 7 9
19 20 20 21 22 23 23 24 24 25 26 25 24 23 22 21 21 21 21 21 20 20 19 19 19 17 16 16 15 12 11 10 10 11 11 10 10 9 10 10 10 9 8 7 7 7 8 8 8 7 7 8 8 7 5 5 4 2 2 1 2 4 8 8 5 4 5 6 5 6 7 7 9 8 6 7 6 5 6 7 7 7 7 7 8
17 17 19 20 21 20 21 22 23 23 25 24 23 22 21 20 20 20 20 20 19 19 18 18 17 16 16 16 14 13 11 11 11 11 10 10 10 9 9 10 9 9 8 6 6 7 7 6 6 6 6 7 8 6 5 4 3 2 1 1 2 5 8 8 5 4 6 6 5 6 5 5 8 7 6 7 6 5 6 7 7 7 7 7 6
16 16 18 19 19 19 19 20 21 21 22 21 21 20 19 18 18 19 20 19 18 17 16 16 15 16 16 15 14 13 12 12 11 10 10 10 10 9 8 9 9 9 7 6 7 7 7 7 6 6 6 7 7 7 6 5 3 2 1 1 3 6 7 6 4 5 6 5 5 5 4 6 9 7 6 6 6 6 6 6 6 6 6 5 6
14 15 16 17 17 18 18 18 18 18 18 17 18 19 18 17 17 18 19 18 17 16 15 14 15 15 15 15 14 13 12 11 11 10 10 10 10 10 9 9 9 9 7 7 8 9 9 8 7 7 7 7 7 8 8 7 6 4 2 1 3 6 6 4 4 4 5 4 6 4 4 9 9 6 6 6 5 5 5 5 5 5 5 5 5
14 14 15 15 16 17 16 16 16 16 16 16 16 18 17 16 18 18 18 17 17 16 15 14 14 14 14 14 12 11 11 10 9 9 9 9 10 10 10 9 9 9 8 8 9 10 9 8 8 8 7 8 8 7 7 7 7 6 4 3 3 6 6 5 4 4 4 5 5 3 4 10 8 6 7 6 5 5 4 4 4 4 5 4 3
15 14 14 14 14 15 16 15 14 14 15 15 14 16 16 17 18 18 18 17 16 16 15 15 14 13 13 12 9 8 9 9 9 9 8 8 9 10 10 10 10 10 9 8 9 9 8 7 7 7 7 7 7 5 4 5 6 6 5 4 4 6 6 6 5 4 4 5 4 2 5 9 7 6 6 6 5 5 4 4 4 4 3 2 2
15 15 14 14 14 14 15 14 14 14 15 13 12 14 15 15 17 17 17 16 15 15 15 14 12 11 11 9 7 6 7 8 8 9 9 9 9 9 10 10 10 10 10 9 8 8 8 7 7 7 7 6 5 3 3 3 4 5 5 4 4 5 7 7 5 4 3 4 3 1 5 9 7 6 5 5 5 5 5 4 4 4 2 1 1
15 16 15 14 14 14 14 14 14 15 14 13 12 15 14 14 15 13 13 14 14 13 13 12 10 10 9 7 6 6 6 7 8 8 8 7 7 8 9 10 10 10 11 9 8 8 7 6 7 7 6 3 3 3 3 3 3 4 4 4 4 5 7 7 5 4 3 5 3 1 5 8 8 6 5 5 5 5 5 4 4 3 2 1 1
15 16 15 14 14 14 14 14 15 15 14 13 13 14 14 15 14 12 11 12 12 11 10 10 9 8 8 6 6 6 6 8 8 7 6 5 6 7 8 8 8 9 10 9 8 9 8 7 7 6 5 3 3 3 2 3 3 4 4 4 4 5 6 6 5 5 4 5 4 1 5 6 8 7 5 5 4 5 5 4 4 3 3 2 1
15 15 15 14 14 14 13 14 14 14 13 13 13 12 13 14 13 11 10 9 10 9 8 9 8 7 7 6 7 6 6 6 7 6 5 4 4 5 5 6 7 8 9 8 8 10 9 7 7 6 5 4 3 3 3 3 3 4 4 4 4 5 5 6 6 6 5 4 4 2 4 4 7 7 5 5 4 4 5 4 4 3 3 3 2
14 15 15 14 14 13 12 12 13 13 13 12 12 11 10 12 12 11 9 8 9 8 7 8 7 7 7 7 7 6 5 4 4 5 5 4 3 4 4 5 7 7 8 8 9 9 9 7 7 6 5 5 4 4 4 3 3 3 4 5 5 5 5 5 6 6 5 5 4 2 3 3 5 7 6 5 4 4 5 5 4 4 3 3 3
15 14 13 14 13 12 11 12 11 10 12 12 11 9 8 10 11 11 9 7 6 5 5 6 6 6 6 6 6 4 4 4 4 4 3 3 3 4 4 5 6 7 7 8 8 8 7 7 6 6 5 5 5 5 4 4 4 4 4 5 6 5 4 4 5 5 5 5 4 3 2 3 4 7 7 6 5 4 5 5 4 4 3 3 4
13 13 12 13 12 12 13 14 13 10 10 11 9 7 6 7 9 8 8 7 5 4 5 5 4 5 5 5 4 4 4 3 4 3 3 3 3 4 5 6 6 6 7 7 6 6 6 6 6 6 6 5 5 5 5 5 5 5 5 5 6 6 5 4 5 5 5 5 5 5 3 3 4 6 7 7 5 4 6 5 4 5 4 4 4
12 13 13 13 12 13 15 16 15 11 10 11 11 8 4 5 6 6 6 6 5 5 5 4 4 4 4 4 3 3 3 3 4 3 4 5 4 5 5 5 6 6 7 7 6 6 6 6 6 6 5 5 5 5 5 5 5 5 6 6 6 5 5 5 6 5 5 5 5 5 4 3 4 4 6 7 7 5 6 6 5 5 5 4 4
15 15 13 11 12 15 14 14 14 13 12 11 12 10 4 5 5 5 5 5 5 5 5 4 4 4 3 3 3 4 3 3 4 5 7 7 6 6 6 6 6 6 7 8 7 6 6 6 6 5 5 5 4 5 5 5 5 5 6 6 5 5 5 6 6 6 4 4 5 4 4 3 3 4 5 6 7 7 6 6 6 6 6 5 5
18 19 17 13 13 15 14 13 14 15 14 11 10 9 6 6 5 5 4 5 5 5 5 4 5 6 4 4 4 4 3 3 5 8 9 7 6 7 7 7 6 6 7 8 7 6 6 6 5 4 4 4 4 5 4 4 4 4 5 6 5 5 5 5 6 6 5 5 5 5 5 3 3 3 4 5 7 8 8 6 6 7 7 6 6
22 22 22 17 14 16 15 13 14 15 13 11 9 9 7 7 5 5 4 4 5 5 5 5 7 8 7 5 5 5 4 4 8 10 8 6 6 6 6 6 5 5 6 6 6 6 6 5 5 4 4 5 5 5 4 4 4 3 4 5 5 5 4 4 5 5 5 5 4 5 6 4 3 4 4 5 6 8 9 8 7 7 7 7 7
23 20 20 18 15 15 14 12 14 13 11 10 9 8 7 6 6 5 5 5 6 6 6 5 6 5 5 4 4 4 3 4 7 10 7 5 5 5 4 5 5 5 5 6 6 6 7 6 6 6 5 5 5 6 5 4 4 4 4 4 4 4 4 4 4 4 4 4 3 4 4 5 5 5 5 5 5 7 9 8 7 7 7 7 7
19 17 17 17 16 16 14 13 14 12 11 10 9 7 7 6 6 6 6 7 7 6 6 5 3 3 3 3 3 4 4 4 5 7 5 4 4 4 4 5 4 4 6 6 6 7 7 6 7 7 6 6 6 6 6 4 4 4 4 4 4 4 4 4 3 4 4 4 3 3 3 4 5 5 5 5 5 6 7 8 8 6 5 5 6
16 17 18 17 17 16 13 12 13 14 12 11 9 9 8 8 7 7 7 6 6 5 5 4 4 4 4 4 4 4 4 4 3 3 4 4 4 3 4 4 3 4 6 6 6 7 7 5 6 6 5 6 7 7 6 5 4 3 3 3 3 3 3 3 3 4 4 4 5 4 4 4 5 6 5 6 7 6 5 6 7 7 5 3 4
16 16 18 17 16 15 14 13 13 13 12 11 11 11 9 9 8 8 7 6 5 4 4 4 4 4 3 4 4 3 3 3 3 3 3 3 2 3 3 4 3 4 5 5 6 6 6 5 5 5 5 5 6 6 6 5 4 4 3 3 3 3 3 3 3 3 3 5 6 6 5 5 6 7 5 4 6 5 4 4 6 7 6 3 2
16 15 16 16 15 15 16 15 14 13 13 14 13 12 10 10 8 8 7 6 5 4 4 4 4 4 3 4 3 3 3 3 3 3 3 2 2 2 3 3 4 4 5 5 5 5 5 5 5 5 5 5 6 5 4 4 4 4 4 3 3 3 3 3 2 3 3 4 5 5 5 4 4 5 5 5 6 6 5 4 4 4 5 4 2
16 14 14 14 14 16 17 16 16 17 17 17 15 14 12 10 9 8 8 6 5 4 4 4 4 4 5 5 4 3 2 2 3 2 2 2 1 1 2 3 3 3 4 4 4 3 4 5 6 5 4 4 4 3 3 3 4 4 3 3 3 3 3 3 3 3 2 3 4 3 3 3 4 4 5 7 7 6 6 5 5 5 5 4 2
13 13 13 13 13 16 19 19 20 20 18 16 15 14 12 10 10 9 8 7 6 5 5 5 5 5 5 5 4 3 3 3 3 3 4 3 2 2 2 2 2 3 3 4 3 3 4 4 5 5 5 5 4 3 3 4 4 4 4 4 3 3 3 3 3 3 2 2 2 1 1 2 2 2 4 6 6 5 3 3 3 5 4 4 4
12 13 13 13 13 15 18 18 18 17 16 15 14 13 12 10 10 10 9 9 8 7 6 5 5 6 6 6 5 4 4 4 4 4 5 5 5 4 2 2 2 2 2 2 2 3 4 4 4 4 5 6 4 4 5 6 6 5 5 4 4 3 3 3 3 3 3 2 2 1 1 1 1 0 0 1 2 3 1 1 1 2 3 3 4
14 14 14 13 14 15 14 14 14 14 15 14 13 12 11 10 10 10 10 10 9 8 7 7 6 6 6 6 5 5 5 5 5 5 5 5 5 5 3 3 2 2 1 1 2 3 3 4 4 4 4 4 3 4 5 6 5 4 3 4 4 4 4 3 4 3 3 3 3 2 1 1 1 1 2 2 1 2 2 2 0 2 4 6 5
15 15 14 13 14 14 12 12 13 13 14 14 13 12 11 11 11 11 11 10 9 8 8 8 7 7 7 6 5 5 4 5 5 5 6 5 5 4 3 2 3 3 2 2 2 2 2 3 3 3 3 3 3 3 3 4 4 3 3 2 2 3 4 5 5 3 2 2 2 3 2 2 2 1 1 1 2 2 3 3 2 2 2 5 6
15 15 15 15 16 16 14 14 14 14 15 14 13 14 14 13 13 13 11 11 11 10 10 9 8 7 6 6 5 5 4 4 5 5 5 5 4 3 3 2 3 4 3 3 3 2 2 3 3 3 4 4 4 3 3 3 4 4 3 1 2 3 2 3 5 3 0 1 2 3 3 3 2 1 1 1 1 2 3 3 4 3 2 2 3
17 17 17 16 17 18 18 18 17 15 16 15 14 15 16 15 15 14 13 12 12 11 10 8 7 7 6 6 6 5 5 4 4 5 6 5 4 3 3 2 3 4 5 3 3 3 2 2 3 3 4 4 3 3 3 3 3 4 3 2 3 3 0 1 3 3 2 0 0 1 1 2 2 2 1 2 2 1 1 1 2 3 3 3 3
18 18 18 16 16 17 19 19 17 15 16 17 16 16 17 16 16 15 13 13 12 10 9 8 7 7 7 7 7 6 5 4 4 5 6 6 6 4 3 3 3 4 4 4 4 3 2 2 2 3 3 3 3 4 4 3 3 3 3 3 3 3 2 2 3 1 1 2 2 2 2 1 1 2 1 2 2 2 2 1 1 2 2 3 4
18 17 16 15 15 14 16 18 17 16 17 19 19 18 17 17 16 14 13 12 12 10 10 9 8 8 8 8 8 7 6 5 5 5 6 6 6 6 6 5 5 5 5 5 5 4 3 2 1 1 2 2 3 4 4 4 3 4 4 4 3 3 4 3 1 2 1 2 3 3 4 4 4 4 3 3 2 2 3 3 2 3 2 4 4
15 14 13 13 13 12 13 15 17 16 17 19 19 18 17 17 15 12 11 11 12 13 11 10 10 9 9 9 8 8 7 6 6 6 6 6 7 7 7 7 6 6 6 5 5 4 3 3 2 1 0 1 2 3 3 4 4 4 5 5 4 3 3 4 2 3 3 2 5 5 6 8 8 8 6 5 4 4 5 6 6 6 5 5 5
13 13 11 9 8 8 9 11 11 12 16 18 19 17 16 16 14 12 12 12 13 14 13 12 11 10 9 8 8 8 8 7 7 7 7 7 7 7 7 7 7 6 6 6 5 5 4 3 3 3 2 2 1 0 1 2 3 3 5 5 4 3 4 4 4 5 5 3 4 5 6 8 10 11 8 7 7 6 7 9 9 8 7 6 8
12 10 10 10 8 7 7 6 5 5 7 11 13 16 16 15 13 12 13 13 14 14 13 12 11 10 9 9 8 8 8 8 8 7 8 7 7 6 6 6 7 7 6 6 6 6 5 5 5 4 3 2 2 2 2 1 0 1 3 4 4 3 3 3 3 4 3 2 2 5 5 6 8 10 9 9 8 8 8 10 10 9 8 8 10
8 13 16 14 11 11 11 10 6 5 5 4 4 9 15 14 12 13 13 14 14 14 14 13 11 10 10 9 8 8 8 8 8 8 7 7 7 7 7 7 8 7 7 7 7 7 7 7 7 6 5 4 4 4 3 3 2 2 3 3 3 2 2 2 3 3 2 1 3 5 7 8 9 9 9 9 9 9 9 10 10 10 10 10 11
Wind_Direction
149 146 148 160 158 155 152 147 145 146 149 148 150 150 153 155 153 154 153 153 149 146 142 142 142 142 140 140 138 138 141 137 131 125 124 126 128 128 127 126 126 126 124 123 120 118 117 116 113 110 109 106 106 108 107 107 104 102 104 102 103 103 100 98 95 95 96 93 89 87 87 89 87 80 79 78 71 63 58 63 62 58 59 60 67
147 145 148 158 155 156 151 147 144 142 147 146 150 150 152 152 149 151 153 150 147 144 143 144 144 143 141 140 138 138 140 135 130 126 126 127 127 128 128 126 124 124 124 123 122 122 120 118 116 112 111 108 109 109 110 109 105 103 103 100 100 98 96 94 95 103 106 100 95 93 90 86 82 81 79 76 69 65 66 71 68 64 65 64 69
143 144 146 156 155 155 152 149 147 144 145 144 148 150 150 151 149 147 148 148 146 146 145 146 145 142 141 139 138 137 137 134 130 128 127 128 128 129 129 128 127 128 130 128 128 128 125 126 123 116 112 112 115 113 112 113 113 111 108 106 101 99 99 97 98 106 107 99 92 89 86 81 78 82 79 77 73 70 71 76 73 68 70 71 72
143 143 146 156 156 155 153 149 149 147 145 143 144 145 147 148 149 146 145 147 148 148 147 147 145 141 140 140 139 137 135 132 132 130 128 127 128 129 131 131 131 134 136 132 132 132 130 131 125 121 121 120 119 117 116 118 123 121 117 111 105 108 106 107 111 111 108 100 92 87 87 85 80 84 81 78 75 71 69 70 69 67 72 75 75
143 143 147 154 154 156 154 150 150 149 147 145 143 144 146 147 148 147 147 149 149 149 147 146 145 143 142 141 139 137 135 131 131 130 127 127 129 130 131 132 133 135 136 134 135 135 134 134 130 129 128 125 122 120 118 118 123 120 118 113 107 109 108 116 117 109 104 99 95 91 92 92 87 85 80 78 75 73 71 69 68 68 73 76 76
142 144 145 148 151 156 156 152 151 149 149 148 146 147 148 150 151 150 151 150 150 149 148 147 146 146 142 141 140 139 138 133 130 130 131 133 133 133 131 132 133 135 136 136 137 137 138 137 134 134 131 128 126 124 122 118 118 116 116 114 113 112 114 122 116 105 96 85 85 92 95 95 92 87 84 82 79 76 72 70 70 69 74 77 77
143 144 144 146 150 156 156 154 151 150 150 150 151 150 150 153 154 154 154 153 152 151 151 150 148 146 142 142 143 144 143 138 133 132 134 136 135 133 130 130 132 134 135 136 137 139 140 139 137 137 134 132 129 127 126 122 117 114 112 111 113 115 122 126 114 99 86 75 79 93 95 94 95 92 88 84 80 79 74 71 71 71 74 76 81
145 146 145 147 152 157 155 154 153 151 151 151 152 153 154 154 154 155 155 155 155 154 153 151 148 146 145 146 147 148 147 145 140 137 136 134 133 131 130 131 132 134 134 136 138 139 141 139 140 140 141 138 132 131 128 121 113 109 106 106 110 116 124 123 107 85 73 75 87 90 90 93 97 95 91 89 86 79 71 66 67 71 74 76 81
148 149 148 148 153 157 154 154 152 151 151 150 152 154 156 156 156 156 156 156 154 153 151 149 149 148 149 149 149 152 151 149 146 141 137 134 133 132 131 133 134 135 136 138 138 140 142 141 144 145 146 142 137 138 131 122 117 112 107 104 105 113 121 119 100 78 73 84 88 85 90 95 98 99 96 95 89 83 80 74 73 72 71 77 83
150 153 152 147 153 156 152 152 150 150 150 150 151 150 152 154 155 155 154 153 152 151 150 150 150 149 150 149 150 153 150 149 146 140 139 136 134 133 130 131 135 136 136 138 141 143 142 143 146 145 145 146 144 145 136 132 136 128 115 107 106 111 117 110 88 72 78 88 80 82 97 96 96 100 97 96 91 95 108 97 86 77 71 77 85
151 154 151 147 153 155 151 151 150 150 150 150 150 148 149 151 152 153 153 152 152 152 152 151 149 149 148 146 148 149 148 146 141 141 142 136 133 132 127 129 132 132 136 138 141 142 143 148 148 146 148 150 150 151 146 142 146 142 124 113 112 110 109 98 82 75 83 86 83 89 97 91 90 100 101 100 94 91 96 90 84 79 77 80 85
152 151 149 148 154 154 151 151 151 152 151 151 150 150 150 151 152 153 155 155 154 154 153 150 149 149 146 144 146 148 147 142 140 143 141 134 133 133 128 127 130 129 133 136 139 142 150 156 151 149 152 154 154 153 151 147 148 144 128 113 110 102 104 95 85 96 87 85 91 93 94 89 93 104 104 100 95 89 89 89 83 79 83 85 85
152 149 147 147 154 155 152 151 151 152 151 152 151 151 152 153 155 156 157 157 157 157 154 151 151 149 146 145 148 151 146 143 143 142 135 133 135 134 129 128 133 133 131 136 142 148 152 155 149 148 155 159 160 153 146 150 150 138 127 117 108 99 114 102 98 116 92 90 95 93 92 92 98 106 107 101 98 95 90 90 85 79 84 88 87
152 147 144 144 153 156 154 153 151 151 150 152 152 151 154 156 158 159 158 158 160 159 156 153 152 149 148 147 148 149 144 142 141 137 134 136 138 136 133 133 136 134 133 138 142 147 146 148 147 148 156 158 166 169 153 147 147 138 131 135 141 156 128 108 109 120 99 96 98 96 96 99 107 107 109 105 99 98 95 93 88 80 78 87 90
150 146 142 144 151 155 156 154 151 151 152 153 154 153 155 157 159 159 159 160 162 160 158 155 154 152 151 148 146 146 141 141 139 136 138 140 142 141 142 141 138 132 134 142 146 152 151 151 153 158 161 158 170 178 162 145 150 154 130 131 143 148 137 128 128 119 105 101 98 96 94 105 115 109 110 109 105 105 101 95 91 85 77 86 92
148 144 140 143 149 153 156 155 155 155 154 155 156 156 156 158 158 160 162 162 162 161 159 157 156 154 150 147 143 143 140 141 139 138 142 144 146 149 152 149 140 131 133 144 150 158 163 165 165 170 174 173 179 179 170 152 151 150 117 120 139 145 140 134 135 119 107 103 100 98 94 107 119 117 117 114 114 117 106 94 92 93 83 82 89
144 141 138 142 148 151 154 155 157 158 158 158 158 158 156 158 157 160 162 161 161 158 158 157 156 153 148 144 139 141 142 141 140 140 146 147 150 153 155 150 142 133 136 146 147 157 169 176 179 182 183 182 181 180 177 151 139 133 103 124 142 154 139 122 123 120 106 104 100 97 97 111 121 120 122 117 116 118 108 99 95 94 86 78 90
143 143 142 145 149 152 154 156 159 159 160 160 159 157 155 155 156 160 161 159 157 155 156 156 153 148 143 139 138 142 143 143 143 144 146 148 151 153 147 143 142 136 138 144 141 148 157 165 174 181 183 181 178 173 168 145 136 133 112 160 154 162 142 121 124 120 108 109 102 96 105 132 125 120 123 118 118 111 107 108 102 96 92 86 88
148 149 149 151 154 153 153 156 159 160 160 160 157 155 153 152 157 159 158 155 153 154 155 153 149 144 140 138 140 143 144 145 146 145 145 144 147 153 149 140 138 138 140 138 134 133 132 137 142 150 160 165 167 160 152 146 141 139 176 216 178 169 148 126 131 127 117 115 106 99 116 134 124 123 126 120 120 113 111 112 108 100 93 87 82
150 154 156 155 154 151 153 156 158 159 157 156 153 152 152 151 156 156 153 151 151 153 151 149 146 143 141 139 139 140 143 144 141 142 140 136 140 152 155 144 139 140 142 138 133 128 122 123 127 134 140 145 154 154 151 150 147 147 168 213 190 172 164 146 141 130 119 114 113 109 117 123 122 125 126 124 124 119 121 116 109 105 94 88 78
155 158 157 154 153 153 156 159 161 160 152 149 149 148 150 150 152 150 149 150 151 152 151 150 148 145 142 137 138 138 139 139 137 140 140 139 141 148 151 146 145 143 144 144 141 136 128 126 130 133 135 140 140 144 153 152 152 153 161 192 192 178 178 163 145 134 123 117 122 123 116 121 126 131 130 131 129 128 128 116 115 112 101 95 63
158 157 153 154 155 155 157 161 160 157 148 145 146 147 150 150 149 148 148 150 152 153 153 153 150 148 143 137 140 142 144 147 145 143 144 149 150 150 148 148 151 148 145 148 150 150 145 140 141 142 140 137 124 129 158 156 160 162 164 184 192 189 184 169 156 148 136 122 125 121 117 124 132 136 136 138 137 140 132 117 128 126 106 96 55
160 154 150 154 153 154 159 163 158 153 146 141 139 139 143 145 147 150 150 151 154 156 154 152 148 147 145 142 145 145 147 151 152 152 155 158 160 160 155 154 154 152 150 151 158 163 167 160 154 153 140 127 119 146 175 165 175 170 174 194 199 193 180 172 167 163 150 123 127 101 115 126 132 139 143 142 142 146 136 127 142 138 111 90 55
160 151 148 152 149 152 156 159 157 152 145 141 139 138 141 147 151 152 152 151 153 154 150 147 146 149 151 146 142 143 147 149 152 157 160 157 163 170 166 161 157 157 155 152 163 169 172 169 161 159 146 133 143 170 176 172 188 187 197 212 202 192 180 180 180 176 157 128 152 145 113 128 136 145 153 146 138 142 144 140 152 153 129 118 59
159 150 147 149 149 152 152 152 151 146 141 143 149 150 150 153 155 153 153 153 150 150 147 147 152 156 157 147 145 151 153 153 154 155 158 159 166 175 177 173 168 165 159 158 174 177 174 175 168 167 168 173 171 170 176 176 190 201 208 213 203 195 190 193 191 186 166 148 183 156 112 132 139 146 159 156 140 140 154 157 161 170 152 143 98
159 152 147 147 149 151 148 147 146 144 143 147 155 156 148 149 156 154 157 158 153 156 151 150 156 158 160 156 158 162 163 161 158 157 162 178 179 182 188 184 185 179 169 176 192 188 183 183 175 175 182 184 181 177 178 185 197 206 205 212 214 204 203 206 200 197 176 164 203 171 114 129 140 149 162 168 158 147 164 170 172 180 171 169 144
157 148 144 147 151 150 146 144 144 146 146 148 152 153 147 149 157 156 166 172 160 161 151 149 157 160 164 170 172 169 167 165 165 168 172 191 197 199 200 190 193 190 185 191 200 201 193 188 181 179 188 190 192 188 184 192 203 215 208 210 217 214 215 213 205 204 182 168 210 211 127 127 145 154 161 173 172 164 172 173 181 184 174 179 173
154 143 145 150 149 141 134 134 138 143 145 150 153 154 157 157 157 155 169 176 159 155 150 155 162 164 172 178 178 170 165 166 175 186 190 210 218 215 209 197 195 192 195 198 199 207 203 193 189 188 194 194 192 194 193 192 197 212 214 211 215 216 218 214 205 203 188 170 197 223 158 134 149 156 162 176 181 179 179 179 187 183 178 191 189
139 136 145 143 134 133 143 145 143 146 147 152 152 151 165 166 157 156 165 168 158 154 156 166 167 169 182 180 173 169 173 183 189 196 213 223 225 225 215 200 198 192 195 205 200 203 208 202 201 201 199 198 193 192 194 193 196 204 213 215 215 216 212 213 208 201 197 175 178 208 200 146 151 160 163 171 181 185 182 187 196 189 192 199 198
119 137 143 130 130 146 164 160 151 159 159 153 151 148 172 174 157 158 162 160 163 166 162 169 178 185 191 179 171 178 198 216 203 207 224 214 208 230 233 212 202 194 192 203 205 203 209 206 207 210 204 204 197 190 195 198 198 199 208 214 211 214 210 211 213 207 205 181 176 206 212 167 161 165 162 166 175 181 181 190 202 201 198 192 193
129 146 146 137 148 159 167 160 157 170 164 156 157 152 171 187 169 167 163 158 165 169 168 175 189 200 194 173 175 185 197 210 200 217 227 214 201 210 227 224 205 196 199 202 204 207 212 208 205 210 209 211 201 190 193 200 204 196 202 210 206 211 208 209 215 213 210 191 181 196 205 197 183 176 166 161 169 178 179 188 200 204 203 201 201
154 157 160 164 160 161 166 161 168 176 161 156 158 150 171 194 183 176 167 160 161 163 170 181 197 205 201 185 187 193 192 198 211 222 223 213 204 197 206 218 204 201 210 204 203 208 210 208 201 203 208 206 200 195 191 197 206 194 197 203 203 212 211 209 216 215 213 208 191 184 192 204 206 204 184 165 168 175 176 182 194 198 202 207 210
173 167 169 173 164 163 169 164 173 176 161 155 151 151 178 190 181 177 173 166 163 163 167 185 209 210 211 214 217 220 214 209 223 229 223 210 205 198 204 209 200 208 217 209 209 208 205 204 199 197 203 202 197 195 190 189 191 189 199 197 197 215 217 211 218 221 221 220 206 197 200 192 193 213 206 185 173 175 179 182 186 187 196 208 212
173 172 172 174 172 169 172 168 168 170 163 157 151 159 178 180 176 175 175 171 164 166 170 189 215 213 211 222 225 221 198 194 228 236 226 210 202 200 216 212 203 213 220 217 215 212 209 202 200 200 197 199 194 190 193 189 179 174 182 191 195 209 223 218 213 219 222 219 205 204 206 194 197 207 211 207 188 182 184 186 191 184 187 202 208
166 170 174 176 180 174 175 171 165 172 169 159 158 167 172 169 174 172 172 172 164 166 169 173 180 165 168 173 172 174 165 177 226 233 210 202 196 189 219 219 205 215 225 224 219 222 218 200 203 207 195 196 193 190 195 189 184 172 165 182 190 193 216 220 216 218 213 210 205 198 203 210 213 208 206 214 208 196 188 188 199 197 189 193 196
165 169 174 179 185 178 174 168 172 184 173 162 168 170 169 165 167 167 164 157 150 151 148 148 146 142 144 132 133 148 149 157 190 203 183 192 191 176 212 223 206 216 227 226 222 230 229 210 213 215 202 203 197 192 193 186 189 181 168 179 178 180 207 210 217 229 225 225 223 210 204 213 219 211 205 208 205 202 192 189 198 205 209 198 182
171 170 175 180 181 173 169 169 182 187 168 169 175 167 165 161 156 152 143 132 127 126 127 136 135 133 127 117 125 130 133 142 152 172 170 169 173 174 206 215 204 214 224 229 230 233 232 223 224 221 215 217 212 199 190 186 187 186 180 182 178 182 197 197 208 227 236 240 237 230 218 211 221 220 211 212 211 207 202 193 198 210 217 219 203
179 177 177 178 175 168 169 172 180 180 168 173 170 159 158 154 145 134 124 117 114 113 122 126 122 120 111 108 108 106 120 136 151 172 167 148 161 187 213 213 204 213 224 232 237 241 238 231 228 223 217 221 224 211 191 190 189 184 180 181 187 188 189 189 204 223 233 244 243 245 240 218 220 223 215 221 227 223 216 198 193 216 224 224 239
185 184 180 177 169 163 167 169 174 177 172 169 161 152 151 144 134 126 121 118 117 117 116 112 111 107 100 99 92 90 106 120 139 153 145 136 155 204 233 228 220 220 228 233 230 236 239 231 226 219 214 214 214 209 208 209 200 188 180 181 187 183 184 179 186 208 220 241 237 240 257 245 231 236 240 240 237 232 217 188 178 198 209 204 222
186 186 182 178 167 162 169 173 175 173 165 158 154 150 146 142 139 136 133 132 131 126 118 114 112 105 99 97 91 93 102 105 113 123 127 132 142 176 211 219 231 228 231 238 223 223 232 230 225 213 207 204 198 204 216 213 204 195 189 187 181 175 173 163 171 183 177 214 220 201 242 254 239 243 259 257 254 251 220 157 160 185 188 177 176
186 185 183 176 170 173 177 176 172 166 157 152 153 152 148 149 148 145 142 139 138 134 129 125 113 105 102 101 101 101 102 101 103 109 121 132 138 145 164 190 220 220 216 233 227 224 230 230 224 211 206 203 201 206 207 210 209 205 202 194 184 182 176 169 181 186 176 182 183 178 168 110 100 124 259 275 289 301 319 75 149 198 206 209 188
188 187 188 177 173 183 184 171 166 163 156 152 153 153 151 152 149 145 142 137 136 136 131 126 118 111 106 105 106 105 104 103 100 100 102 111 124 133 152 170 177 183 176 188 199 211 222 221 217 216 216 212 211 207 206 218 222 216 217 206 186 179 181 193 197 192 195 202 199 204 189 155 132 71 58 44 39 8 27 46 67 201 221 236 231
190 189 188 177 174 188 187 168 169 168 159 156 156 155 151 148 144 141 140 133 129 127 125 126 123 117 113 110 107 105 105 104 101 98 91 87 92 105 120 135 144 158 166 167 169 184 206 208 212 216 217 214 211 211 222 241 251 242 223 221 216 191 186 197 189 179 215 235 239 242 240 235 241 305 359 39 49 40 50 56 65 104 201 223 230
191 194 189 181 181 186 184 174 175 174 163 160 158 156 155 150 142 137 132 129 128 127 127 127 125 121 119 116 109 103 98 97 101 96 87 78 73 81 86 88 110 129 134 143 147 159 196 201 207 212 221 227 211 209 234 248 262 262 243 248 261 239 221 198 168 121 314 260 266 265 259 253 261 295 319 36 48 56 66 69 75 82 95 146 199
190 196 192 186 185 183 185 181 178 175 166 163 161 156 154 149 142 137 132 131 135 138 136 134 133 128 121 119 115 107 98 93 93 85 80 77 73 70 72 78 84 100 116 129 137 152 184 197 203 206 226 244 219 203 225 236 249 269 280 289 258 250 348 189 165 80 39 48 335 308 314 279 286 316 339 29 14 12 29 33 88 95 87 91 111
194 194 192 188 189 184 185 182 176 173 167 165 164 157 152 149 147 147 146 146 146 145 143 140 137 129 122 120 116 109 100 92 87 82 84 86 86 85 86 95 89 84 96 108 118 134 153 174 198 197 211 234 217 210 217 224 231 236 245 248 256 299 342 219 198 97 87 97 67 40 55 44 33 37 25 49 31 15 11 348 58 90 82 80 90
195 190 190 188 190 185 184 182 176 174 169 167 166 160 155 155 156 154 154 153 146 140 139 136 132 127 124 122 118 111 103 98 93 84 85 88 89 90 91 95 94 87 85 86 88 91 91 88 117 187 204 202 202 225 217 206 213 206 215 222 236 297 311 282 215 115 161 135 106 85 69 64 65 66 58 59 56 35 28 19 55 97 96 78 87
190 184 185 184 186 181 180 182 180 177 171 168 169 164 159 159 159 154 151 148 140 137 137 133 131 130 129 124 120 115 106 101 98 89 83 81 82 85 87 90 88 86 82 76 72 66 64 62 55 69 56 157 177 226 217 202 213 197 194 209 218 244 263 267 232 179 219 193 134 113 83 76 71 67 63 61 62 54 43 39 56 78 79 70 77
183 177 168 157 160 167 175 179 183 182 174 170 170 165 160 160 158 150 146 141 137 138 136 133 133 133 131 124 118 114 109 105 99 90 81 74 74 76 81 84 77 70 68 62 60 55 50 54 52 53 43 46 83 199 192 195 218 197 186 194 201 212 218 233 222 212 243 248 137 127 109 93 75 66 67 69 66 63 60 59 65 71 71 66 63
179 162 136 126 131 134 133 123 80 75 140 165 171 166 159 158 156 150 145 140 138 138 135 135 137 135 132 124 119 117 114 110 99 89 81 73 67 65 68 72 65 59 55 51 55 58 58 65 66 65 62 56 61 60 72 93 186 183 181 183 180 190 192 196 201 204 241 293 102 120 118 105 86 74 74 77 75 74 76 74 75 75 75 72 67
147 113 108 116 118 117 131 147 136 100 118 157 203 177 157 155 158 150 145 142 141 140 138 139 140 137 133 127 123 120 116 113 105 92 81 73 70 70 68 67 62 55 52 54 62 69 70 69 68 67 68 74 86 87 84 79 74 119 159 179 183 191 195 173 166 173 170 113 108 111 104 98 94 88 83 84 85 84 83 80 79 78 78 78 78